History for Miami, FL

Saturday, February 2, 2013 — View Current Conditions

Jump to Data:

Date:
Airport Code:
Recently Viewed Airport Codes: KMIA
Daily Summary
  Actual Average Record
Temperature
Mean Temperature 67°F 69°F  
Max Temperature 75°F 77°F 87°F (1902)
Min Temperature 59°F 61°F 35°F (1942)
Degree Days
Heating Degree Days 0 1  
Month to date heating degree days 0 2  
Since 1 July heating degree days 20 92  
Cooling Degree Days 2 5  
Month to date cooling degree days 2 10  
Year to date cooling degree days 271 161  
Growing Degree Days 17 (Base 50)    
Moisture
Dew Point 49°F    
Average Humidity 53    
Maximum Humidity 69    
Minimum Humidity 37    
Precipitation
Precipitation 0.00 in 0.08 in 4.42 in (1998)
Month to date precipitation 0.00 0.15  
Year to date precipitation 0.54 1.77  
Snow
Snow 0.00 in in in ()
Month to date snowfall 0.0  
Since 1 July snowfall 0.0  
Snow Depth 0.00 in    
Sea Level Pressure
Sea Level Pressure 30.20 in    
Wind
Wind Speed 6 mph (NE)    
Max Wind Speed 17 mph    
Max Gust Speed 22 mph    
Visibility 10 miles    
Events      
T = Trace of Precipitation, MM = Missing Value Source: NWS Daily Summary

Show full METARS

(help) - Comma Delimited File

Hourly Observations

Time(EST) Temperature Dew Point Humidity Sea Level Pressure Visibility Wind Direction Wind Speed Gust Speed Precipitation Events Conditions
12:53 AM 61.0°F 50.0°F 67% 30.24 in 10.0 miles Calm Calm - N/A   Partly Cloudy
1:53 AM 60.1°F 50.0°F 69% 30.23 in 10.0 miles NNW 4.6 mph - N/A   Partly Cloudy
2:53 AM 60.1°F 50.0°F 69% 30.22 in 10.0 miles Calm Calm - N/A   Partly Cloudy
3:53 AM 59.0°F 48.9°F 69% 30.22 in 10.0 miles NNW 5.8 mph - N/A   Partly Cloudy
4:53 AM 59.0°F 48.0°F 67% 30.22 in 10.0 miles North 5.8 mph - N/A   Partly Cloudy
5:53 AM 59.0°F 44.1°F 58% 30.24 in 10.0 miles NNW 5.8 mph - N/A   Partly Cloudy
6:53 AM 59.0°F 39.0°F 48% 30.25 in 10.0 miles Calm Calm - N/A   Partly Cloudy
7:53 AM 60.1°F 36.0°F 41% 30.27 in 10.0 miles North 8.1 mph - N/A   Partly Cloudy
8:53 AM 63.0°F 37.0°F 38% 30.27 in 10.0 miles North 6.9 mph - N/A   Partly Cloudy
9:53 AM 68.0°F 41.0°F 37% 30.27 in 10.0 miles North 5.8 mph - N/A   Partly Cloudy
10:53 AM 73.0°F 48.0°F 41% 30.25 in 10.0 miles East 6.9 mph - N/A   Partly Cloudy
11:53 AM 73.0°F 51.1°F 46% 30.22 in 10.0 miles East 13.8 mph - N/A   Scattered Clouds
12:53 PM 73.9°F 52.0°F 46% 30.19 in 10.0 miles East 12.7 mph 18.4 mph N/A   Scattered Clouds
1:53 PM 73.9°F 53.1°F 48% 30.17 in 10.0 miles ENE 11.5 mph - N/A   Scattered Clouds
2:53 PM 72.0°F 52.0°F 49% 30.16 in 10.0 miles East 12.7 mph 17.3 mph N/A   Scattered Clouds
3:53 PM 73.9°F 53.1°F 48% 30.15 in 10.0 miles ENE 9.2 mph - N/A   Scattered Clouds
4:53 PM 71.1°F 52.0°F 51% 30.15 in 10.0 miles East 10.4 mph - N/A   Scattered Clouds
5:53 PM 70.0°F 53.1°F 55% 30.14 in 10.0 miles East 8.1 mph - N/A   Scattered Clouds
6:53 PM 69.1°F 54.0°F 58% 30.15 in 10.0 miles NE 6.9 mph - N/A   Scattered Clouds
7:53 PM 68.0°F 54.0°F 61% 30.16 in 10.0 miles Calm Calm - N/A   Partly Cloudy
8:53 PM 68.0°F 54.0°F 61% 30.17 in 10.0 miles NNE 3.5 mph - N/A   Scattered Clouds
9:53 PM 66.9°F 54.0°F 63% 30.17 in 10.0 miles NNE 3.5 mph - N/A   Scattered Clouds
10:53 PM 64.9°F 54.0°F 68% 30.16 in 10.0 miles Calm Calm - N/A   Partly Cloudy
11:53 PM 68.0°F 55.9°F 65% 30.13 in 10.0 miles East 4.6 mph - N/A   Partly Cloudy